Location: Newark
(46.7636°N, 1.8358°W)
Time: 22:14:32
(UTC+00:00)

Tiros 1 despin weight - All Passes

Search period start: 16 October 2019 00:00
Search period end: 26 October 2019 00:00
Orbit: 594 x 643 km, 48.2° (Epoch: 15 October)

Date Brightness Start Highest point End Pass type
(mag) Time Alt. Az. Time Alt. Az. Time Alt. Az.
16 Oct - 02:34:49 10° SW 02:39:12 40° SSE 02:43:37 10° E visible
16 Oct - 04:15:54 10° WSW 04:20:37 85° NNW 04:25:19 10° ENE visible
16 Oct - 05:57:40 10° W 06:02:23 78° N 06:07:04 10° E daylight
16 Oct - 07:39:23 10° WNW 07:43:55 52° SSW 07:48:25 10° SE daylight
16 Oct - 09:22:16 10° WSW 09:24:45 14° SW 09:27:12 10° SSW daylight
17 Oct - 01:11:28 10° S 01:14:42 19° SE 01:17:56 10° E night (unlit)
17 Oct - 02:51:02 10° SW 02:55:40 62° SSE 03:00:19 10° ENE visible
17 Oct - 04:32:34 10° W 04:37:17 75° N 04:41:59 10° E visible
17 Oct - 06:14:19 10° WNW 06:19:02 88° SSW 06:23:42 10° ESE daylight
17 Oct - 07:56:08 10° W 08:00:19 33° SW 08:04:28 10° SSE daylight
18 Oct - 01:26:51 10° SSW 01:30:57 31° SE 01:35:05 10° E night (unlit)
18 Oct - 03:07:30 10° WSW 03:12:13 85° SSE 03:16:56 10° ENE visible
18 Oct - 04:49:15 10° W 04:53:58 74° N 04:58:39 10° E visible
18 Oct - 06:30:56 10° WNW 06:35:36 65° SSW 06:40:13 10° ESE daylight
18 Oct - 08:13:13 10° W 08:16:37 20° SW 08:19:58 10° S daylight
19 Oct - 00:04:22 10° SSE 00:06:34 13° SE 00:08:45 10° ESE night (unlit)
19 Oct - 01:42:50 10° SW 01:47:20 49° SSE 01:51:53 10° ENE visible
19 Oct - 03:24:08 10° W 03:28:51 80° N 03:33:34 10° ENE visible
19 Oct - 05:05:54 10° WNW 05:10:38 83° NNE 05:15:19 10° E visible
19 Oct - 06:47:37 10° W 06:52:05 43° SSW 06:56:29 10° SE daylight
19 Oct - 08:31:31 10° WSW 08:32:46 11° SW 08:34:00 10° SSW daylight
20 Oct - 00:19:05 10° SSW 00:22:45 23° SE 00:26:27 10° E night (unlit)
20 Oct - 01:59:11 10° WSW 02:03:50 72° SSE 02:08:32 10° ENE visible
20 Oct - 03:40:49 10° W 03:45:32 74° N 03:50:14 10° E visible
20 Oct - 05:22:32 10° WNW 05:27:15 79° SSW 05:31:55 10° ESE visible
20 Oct - 07:04:29 10° W 07:08:26 27° SW 07:12:20 10° SSE daylight
21 Oct - 00:34:46 10° SW 00:39:04 38° SSE 00:43:24 10° E night (unlit)
21 Oct - 02:15:44 10° WSW 02:20:26 88° NNW 02:25:10 10° ENE visible
21 Oct - 03:57:29 10° W 04:02:13 77° N 04:06:55 10° E visible
21 Oct - 05:39:10 10° WNW 05:43:46 56° SSW 05:48:20 10° SE visible
21 Oct - 07:21:49 10° W 07:24:39 16° SW 07:27:28 10° S daylight
21 Oct - 23:11:37 10° S 23:14:35 17° SE 23:17:35 10° E night (unlit)
22 Oct - 00:50:55 10° SW 00:55:30 58° SSE 01:00:08 10° ENE night (unlit)
22 Oct - 02:32:23 10° W 02:37:05 76° N 02:41:48 10° E visible
22 Oct - 04:14:08 10° WNW 04:18:52 89° NE 04:23:34 10° ESE visible
22 Oct - 05:55:54 10° W 06:00:11 36° SSW 06:04:27 10° SSE visible
22 Oct - 23:26:51 10° SSW 23:30:50 28° SE 23:34:50 10° E night (unlit)
23 Oct - 01:07:21 10° WSW 01:12:02 81° SSE 01:16:45 10° ENE night (unlit)
23 Oct - 02:49:04 10° W 02:53:46 74° N 02:58:29 10° E visible
23 Oct - 04:30:45 10° WNW 04:35:26 69° SSW 04:40:06 10° ESE visible
23 Oct - 06:12:54 10° W 06:16:30 22° SW 06:20:04 10° S daylight
23 Oct - 22:04:48 10° SSE 22:06:28 12° SE 22:08:08 10° ESE night (unlit)
23 Oct - 23:42:46 10° SW 23:47:11 45° SSE 23:51:40 10° ENE night (unlit)
24 Oct - 01:23:58 10° W 01:28:39 81° N 01:33:22 10° ENE night (unlit)
24 Oct - 03:05:43 10° WNW 03:10:26 81° N 03:15:10 10° E visible
24 Oct - 04:47:25 10° WNW 04:51:55 47° SSW 04:56:24 10° SE visible
24 Oct - 06:30:46 10° WSW 06:32:40 12° SW 06:34:34 10° SSW daylight
24 Oct - 22:19:09 10° S 22:22:38 21° SE 22:26:08 10° E night (unlit)
24 Oct - 23:59:03 10° WSW 00:03:40 68° SSE 00:08:20 10° ENE night (unlit)
25 Oct - 01:40:38 10° W 01:45:19 74° N 01:50:02 10° E night (unlit)
25 Oct - 03:22:20 10° WNW 03:27:04 82° SSW 03:31:46 10° ESE visible
25 Oct - 05:04:13 10° W 05:08:18 29° SW 05:12:20 10° SSE visible
25 Oct - 22:34:44 10° SSW 22:38:55 35° SSE 22:43:09 10° E night (unlit)
